Flag for U.S.A. Weather past 2 weeks in Cheyenne, Wyoming, U.S.A.

Now
58 °F

Clear.


Feels Like: 57 °F
Forecast: 50 / 72 °F
Wind: 6 mph from West

Location: Cheyenne Airport

Current Time: Jul 31, 2014 at 12:21:09 AM

Latest Report: Jul 30, 2014 at 11:53 PM


Visibility: 10 mi

Pressure: 30.17 "Hg

Humidity: 81%

Dew point: 52 °F

Location of CheyenneLocation

Historic Weather in Cheyenne — Graph

°F

Cheyenne temperature yesterday

Maximum temperature yesterday: 61 °F (at 3:53 PM)
Minimum temperature yesterday: 55 °F (at 1:53 AM)
Average temperature yesterday: 58 °F

Past Weeks' High & Low Weather Summary

 TemperatureHumidityPressure
High91 °F (Jul 20, 4:53 PM)100% (Jul 17, 6:53 AM)30.43 "Hg (Jul 17, 6:53 AM)
Low50 °F (Jul 17, 7:04 AM)14% (Jul 19, 3:53 PM)29.74 "Hg (Jul 20, 12:53 AM)
Average69 °F56%29.97 "Hg
* Reported Jul 15 10:53 PM — Jul 30 10:53 PM, Cheyenne, Weather by CustomWeather, © 2014

Note: Actual official high and low records may vary slightly from our data, if they occured in-between our weather recording intervals... More about our weather records

Advertising

Cheyenne weather history for previous 24 hours

 ConditionsComfort  
Time TempWeatherWind HumidityBarometerVisibility
10:53 PM
Jul 30
57 °FPassing clouds.6 mph90%30.19 "Hg10 mi
9:53 PM57 °FClear.8 mph90%30.19 "Hg10 mi
8:53 PM58 °FScattered clouds.8 mph87%30.18 "Hg10 mi
7:53 PM58 °FScattered clouds.12 mph90%30.18 "Hg10 mi
6:53 PM60 °FScattered clouds.8 mph83%30.18 "Hg10 mi
5:53 PM60 °FOvercast.5 mph80%30.19 "Hg10 mi
4:53 PM61 °FOvercast.8 mph78%30.19 "Hg10 mi
3:53 PM61 °FBroken clouds.7 mph81%30.20 "Hg10 mi
3:01 PM60 °FLight rain. Cloudy.8 mph83%30.38 "Hg10 mi
1:53 PM59 °FOvercast.5 mph84%30.21 "Hg10 mi
12:53 PM58 °FLight rain. Mostly cloudy.3 mph87%30.21 "Hg10 mi
11:53 AM57 °FLight rain. Fog.3 mph90%30.21 "Hg6 mi
10:53 AM57 °FLight rain. Mostly cloudy.5 mph90%30.21 "Hg10 mi
9:53 AM58 °FLight rain. Mostly cloudy.No wind87%30.19 "Hg10 mi
8:53 AM58 °FLight rain. Cloudy.No wind87%30.19 "Hg10 mi
7:53 AM57 °FLight rain. Fog.No wind90%30.18 "Hg6 mi
6:53 AM56 °FLight rain. Mostly cloudy.No wind93%30.16 "Hg7 mi
5:53 AM56 °FLight rain. Low clouds.5 mph93%30.16 "Hg7 mi
4:53 AM56 °FLight rain. Low clouds.3 mph93%30.14 "Hg10 mi
3:53 AM55 °FLight rain. Fog.5 mph96%30.13 "Hg5 mi
3:04 AM55 °FLight rain. Mostly cloudy.5 mph96%30.32 "Hg7 mi
1:53 AM55 °FLight rain. Fog.8 mph96%30.13 "Hg6 mi
12:53 AM56 °FRain. Fog.8 mph97%30.13 "Hg5 mi
Weather by CustomWeather, © 2014

See weather overviewHow to use our weather pages